Miami, FL

2:15 PM EST on December 08, 2019 (GMT -0500)
Miami International

Weather History for KMIA - November, 2019

Change the Weather History Date:

Sunday, November 17, 2019

  Actual Average Record
Temperature  
Mean Temperature 61 °F 75 °F  
Max Temperature 65 °F 81 °F 87 °F (2000)
Min Temperature 57 °F 68 °F 43 °F (1901)
Degree Days  
Heating Degree Days 4 0  
Month to date heating degree days 4 0  
Since 1 July heating degree days 4 0  
Cooling Degree Days 0 10  
Month to date cooling degree days 238 186  
Year to date cooling degree days 4909 4258  
Growing Degree Days 10 (Base 50)    
Moisture  
Dew Point 53 °F    
Average Humidity 76    
Maximum Humidity 84    
Minimum Humidity 67    
Precipitation  
Precipitation T in 0.10 in 0.91 in (1934)
Month to date precipitation 1.46 2.12  
Year to date precipitation 60.56 58.71  
Snow  
Snow 0.00 in - - ()
Month to date snowfall 0.0  
Since 1 July snowfall 0.0  
Since 1 September snowfall 0.0  
Snow Depth 0.00 in    
Sea Level Pressure  
Sea Level Pressure 29.88 in    
Wind  
Wind Speed 8 mph (NW)    
Max Wind Speed 15 mph    
Max Gust Speed 20 mph    
Visibility 10 miles    
Events      
T = Trace of Precipitation, MM = Missing Value Source: NWS Daily Summary

Daily Weather History Graph

Daily Weather History Graph

Search for Another Location

Airport or City:

Astronomy

Nov. 17, 2019 Rise Set
Actual Time 6:40 AM EST 5:31 PM EST
Civil Twilight 6:15 AM EST 5:55 PM EST
Nautical Twilight 5:48 AM EST 6:23 PM EST
Astronomical Twilight 5:20 AM EST 6:51 PM EST
Moon 10:13 PM EST (11/17) 11:16 AM EST (11/17)
Length of Visible Light 11h 40m
Length of Day
10h 51m
Waning Gibbous, 73% of the Moon is Illuminated
Nov 17
Waning Gibbous
Nov 19
Last Quarter
Nov 26
New
Dec 4
First Quarter
Dec 12
Full

Hourly Weather History & Observations

Time (EST) Temp. Dew Point Humidity Pressure Visibility Wind Dir Wind Speed Gust Speed Precip Events Conditions
12:53 AM 61.0 °F 54.0 °F 78% 29.89 in 10.0 mi NW 5.8 mph - N/A   Partly Cloudy
1:53 AM 60.1 °F 55.0 °F 83% 29.87 in 10.0 mi NW 8.1 mph - N/A   Partly Cloudy
2:24 AM 60.1 °F 55.0 °F 83% 29.86 in 10.0 mi WNW 6.9 mph - N/A   Mostly Cloudy
2:53 AM 61.0 °F 55.0 °F 81% 29.86 in 10.0 mi Variable 5.8 mph - N/A   Mostly Cloudy
3:53 AM 61.0 °F 54.0 °F 78% 29.86 in 10.0 mi NNW 5.8 mph - N/A   Overcast
4:53 AM 60.1 °F 53.1 °F 78% 29.86 in 10.0 mi NNW 10.4 mph - N/A   Overcast
5:53 AM 57.9 °F 52.0 °F 81% 29.89 in 10.0 mi NW 8.1 mph - N/A   Overcast
6:53 AM 57.9 °F 51.1 °F 78% 29.91 in 10.0 mi NNW 9.2 mph - N/A   Overcast
7:53 AM 57.9 °F 51.1 °F 78% 29.92 in 10.0 mi NW 9.2 mph - N/A   Overcast
8:53 AM 57.9 °F 51.1 °F 78% 29.94 in 10.0 mi NW 9.2 mph 17.3 mph N/A   Overcast
9:53 AM 57.9 °F 51.1 °F 78% 29.94 in 10.0 mi NW 10.4 mph - N/A   Overcast
10:53 AM 59.0 °F 52.0 °F 78% 29.94 in 10.0 mi NW 9.2 mph - N/A   Overcast
11:53 AM 62.1 °F 52.0 °F 70% 29.90 in 10.0 mi NW 8.1 mph - N/A   Mostly Cloudy
12:53 PM 63.0 °F 52.0 °F 67% 29.88 in 10.0 mi NW 11.5 mph 18.4 mph N/A   Mostly Cloudy
1:17 PM 64.0 °F 52.0 °F 65% 29.87 in 10.0 mi NNW 12.7 mph 18.4 mph 0.00 in   Mostly Cloudy
1:53 PM 64.0 °F 53.1 °F 67% 29.86 in 10.0 mi NNW 11.5 mph - 0.00 in   Mostly Cloudy
2:53 PM 63.0 °F 52.0 °F 67% 29.84 in 10.0 mi NNW 9.2 mph - 0.00 in   Mostly Cloudy
3:53 PM 62.1 °F 52.0 °F 70% 29.85 in 10.0 mi NNW 10.4 mph - N/A   Overcast
4:53 PM 62.1 °F 52.0 °F 70% 29.85 in 7.0 mi NW 8.1 mph - N/A   Overcast
5:53 PM 62.1 °F 53.1 °F 72% 29.87 in 10.0 mi NNW 8.1 mph - N/A   Overcast
6:53 PM 61.0 °F 53.1 °F 75% 29.88 in 10.0 mi NNW 9.2 mph - N/A   Overcast
7:53 PM 62.1 °F 53.1 °F 72% 29.88 in 10.0 mi NW 5.8 mph - 0.00 in   Overcast
8:53 PM 61.0 °F 53.1 °F 75% 29.90 in 10.0 mi NW 4.6 mph - N/A   Overcast
9:53 PM 61.0 °F 53.1 °F 75% 29.89 in 10.0 mi Variable 3.5 mph - 0.00 in   Overcast
10:53 PM 61.0 °F 53.1 °F 75% 29.90 in 10.0 mi North 5.8 mph - N/A   Overcast
11:16 PM 60.1 °F 53.1 °F 78% 29.89 in 10.0 mi Calm Calm - N/A   Overcast
11:53 PM 60.1 °F 53.1 °F 78% 29.89 in 10.0 mi Calm Calm - N/A   Overcast